BPO701 EDOY-EDVX

Flight info

Callsign BPO701
Flight time 0h 50m
Altitude 5000
Route VFR NIGHT POLICE DCT GIFHORN FEDERAL AIRPORT
Aircraft EC35/L-S/G

Departure

Time 2026-04-11 20:33
Airport Ahrensfelde Heliport (EDOY)

Arrival

Time 2026-04-11 21:23
Airport Gifhorn Federal Police Heliport (EDVX)
Time Latitude Longitude Altitude Speed Heading
2026-04-11 20:31 52.60098 13.57664 222 ft 0 kts 311°
2026-04-11 20:33 52.60180 13.57581 249 ft 5 kts 326°
2026-04-11 20:33 52.60159 13.57639 457 ft 21 kts 320°
2026-04-11 20:33 52.60412 13.57064 585 ft 90 kts 305°
2026-04-11 20:33 52.60743 13.55879 652 ft 133 kts 286°
2026-04-11 20:34 52.60846 13.54290 947 ft 147 kts 269°
2026-04-11 20:34 52.60872 13.52539 1333 ft 156 kts 264°
2026-04-11 20:34 52.60817 13.50778 1760 ft 157 kts 258°
2026-04-11 20:34 52.60741 13.48954 2147 ft 158 kts 257°
2026-04-11 20:35 52.60650 13.47162 2527 ft 157 kts 256°
2026-04-11 20:35 52.60548 13.45390 2875 ft 158 kts 256°
2026-04-11 20:35 52.60446 13.43604 3216 ft 156 kts 256°
2026-04-11 20:35 52.60345 13.41837 3549 ft 154 kts 257°
2026-04-11 20:36 52.60237 13.40054 3694 ft 161 kts 257°
2026-04-11 20:36 52.60099 13.38163 3733 ft 167 kts 256°
2026-04-11 20:36 52.59943 13.36257 3762 ft 168 kts 256°
2026-04-11 20:36 52.59802 13.34373 3804 ft 168 kts 256°
2026-04-11 20:37 52.59668 13.32458 3906 ft 167 kts 256°
2026-04-11 20:37 52.59553 13.30633 4230 ft 154 kts 258°
2026-04-11 20:37 52.59488 13.28944 4586 ft 144 kts 260°
2026-04-11 20:37 52.59441 13.27335 4937 ft 139 kts 261°
2026-04-11 20:38 52.59377 13.25769 5270 ft 136 kts 260°
2026-04-11 20:38 52.59295 13.24238 5592 ft 133 kts 259°
2026-04-11 20:38 52.59195 13.22733 5911 ft 131 kts 258°
2026-04-11 20:38 52.59078 13.21258 6221 ft 129 kts 258°
2026-04-11 20:39 52.58944 13.19804 6516 ft 128 kts 258°
2026-04-11 20:39 52.58818 13.18373 6783 ft 126 kts 259°
2026-04-11 20:39 52.58709 13.16953 7046 ft 124 kts 260°
2026-04-11 20:39 52.58617 13.15550 7302 ft 123 kts 262°
2026-04-11 20:40 52.58542 13.14158 7554 ft 122 kts 263°
2026-04-11 20:40 52.58484 13.12777 7802 ft 120 kts 264°
2026-04-11 20:40 52.58441 13.11407 8043 ft 119 kts 266°
2026-04-11 20:40 52.58414 13.10054 8282 ft 118 kts 267°
2026-04-11 20:41 52.58405 13.08712 8514 ft 117 kts 268°
2026-04-11 20:41 52.58412 13.07387 8739 ft 115 kts 270°
2026-04-11 20:41 52.58433 13.06071 8963 ft 114 kts 271°
2026-04-11 20:41 52.58457 13.04772 9184 ft 113 kts 271°
2026-04-11 20:42 52.58478 13.03484 9402 ft 112 kts 271°
2026-04-11 20:42 52.58496 13.02204 9617 ft 111 kts 271°
2026-04-11 20:42 52.58514 13.00937 9827 ft 110 kts 271°
2026-04-11 20:42 52.58533 12.99672 9966 ft 114 kts 271°
2026-04-11 20:43 52.58553 12.98334 10018 ft 121 kts 271°
2026-04-11 20:43 52.58575 12.96907 10020 ft 128 kts 271°
2026-04-11 20:43 52.58598 12.95418 10007 ft 132 kts 271°
2026-04-11 20:43 52.58623 12.93902 9996 ft 133 kts 271°
2026-04-11 20:44 52.58648 12.92372 9994 ft 134 kts 272°
2026-04-11 20:44 52.58674 12.90841 9992 ft 134 kts 272°
2026-04-11 20:44 52.58701 12.89308 9990 ft 134 kts 272°
2026-04-11 20:44 52.58727 12.87775 9995 ft 134 kts 272°
2026-04-11 20:45 52.58742 12.86272 9989 ft 133 kts 271°
2026-04-11 20:45 52.58748 12.84750 9991 ft 133 kts 270°
2026-04-11 20:45 52.58755 12.83226 9991 ft 133 kts 271°
2026-04-11 20:45 52.58762 12.81677 9988 ft 134 kts 271°
2026-04-11 20:46 52.58771 12.80170 9990 ft 134 kts 271°
2026-04-11 20:46 52.58780 12.78640 9992 ft 134 kts 271°
2026-04-11 20:46 52.58790 12.77108 9991 ft 134 kts 271°
2026-04-11 20:47 52.58812 12.74046 9986 ft 134 kts 271°
2026-04-11 20:47 52.58823 12.72515 9990 ft 134 kts 271°
2026-04-11 20:47 52.58836 12.70988 9988 ft 134 kts 271°
2026-04-11 20:47 52.58848 12.69464 9987 ft 132 kts 270°
2026-04-11 20:48 52.58767 12.67977 9989 ft 131 kts 264°
2026-04-11 20:48 52.58648 12.66491 9992 ft 132 kts 263°
2026-04-11 20:48 52.58513 12.65001 9988 ft 132 kts 262°
2026-04-11 20:48 52.58367 12.63509 9993 ft 132 kts 262°
2026-04-11 20:49 52.58246 12.62013 9991 ft 132 kts 264°
2026-04-11 20:49 52.58136 12.60511 9986 ft 133 kts 264°
2026-04-11 20:49 52.58027 12.59002 9987 ft 133 kts 264°
2026-04-11 20:49 52.57920 12.57493 9987 ft 133 kts 264°
2026-04-11 20:50 52.57813 12.55982 9986 ft 133 kts 264°
2026-04-11 20:50 52.57707 12.54470 9985 ft 133 kts 265°
2026-04-11 20:50 52.57603 12.52957 9986 ft 133 kts 265°
2026-04-11 20:50 52.57499 12.51442 9985 ft 133 kts 265°
2026-04-11 20:51 52.57396 12.49931 9984 ft 133 kts 265°
2026-04-11 20:51 52.57293 12.48417 9980 ft 133 kts 265°
2026-04-11 20:51 52.57192 12.46904 9981 ft 133 kts 265°
2026-04-11 20:51 52.57092 12.45390 9982 ft 133 kts 265°
2026-04-11 20:52 52.56993 12.43878 9984 ft 133 kts 265°
2026-04-11 20:52 52.56896 12.42369 9980 ft 133 kts 265°
2026-04-11 20:52 52.56800 12.40857 9986 ft 133 kts 265°
2026-04-11 20:52 52.56704 12.39345 9983 ft 133 kts 265°
2026-04-11 20:53 52.56610 12.37829 9982 ft 133 kts 265°
2026-04-11 20:53 52.56516 12.36313 9982 ft 133 kts 266°
2026-04-11 20:53 52.56423 12.34801 9984 ft 133 kts 266°
2026-04-11 20:53 52.56331 12.33285 9985 ft 133 kts 266°
2026-04-11 20:54 52.56240 12.31773 9986 ft 133 kts 266°
2026-04-11 20:54 52.56150 12.30262 9984 ft 133 kts 266°
2026-04-11 20:54 52.56062 12.28768 9981 ft 133 kts 266°
2026-04-11 20:54 52.55974 12.27256 9982 ft 133 kts 266°
2026-04-11 20:55 52.55889 12.25748 9984 ft 133 kts 266°
2026-04-11 20:55 52.55805 12.24238 9983 ft 133 kts 266°
2026-04-11 20:55 52.55722 12.22729 9979 ft 132 kts 266°
2026-04-11 20:55 52.55640 12.21219 9981 ft 132 kts 266°
2026-04-11 20:56 52.55561 12.19712 9984 ft 132 kts 267°
2026-04-11 20:56 52.55519 12.18210 9987 ft 132 kts 270°
2026-04-11 20:56 52.55493 12.16703 9984 ft 132 kts 270°
2026-04-11 20:56 52.55469 12.15192 9983 ft 132 kts 270°
2026-04-11 20:57 52.55446 12.13679 9983 ft 133 kts 270°
2026-04-11 20:57 52.55425 12.12164 9980 ft 133 kts 270°
2026-04-11 20:57 52.55405 12.10649 9979 ft 133 kts 270°
2026-04-11 20:57 52.55386 12.09134 9979 ft 133 kts 270°
2026-04-11 20:58 52.55368 12.07616 9976 ft 133 kts 270°
2026-04-11 20:58 52.55352 12.06096 9980 ft 133 kts 270°
2026-04-11 20:58 52.55337 12.04581 9976 ft 133 kts 270°
2026-04-11 20:58 52.55323 12.03064 9978 ft 133 kts 270°
2026-04-11 20:59 52.55311 12.01547 9977 ft 133 kts 270°
2026-04-11 20:59 52.55299 12.00031 9976 ft 133 kts 270°
2026-04-11 20:59 52.55289 11.98514 9975 ft 133 kts 270°
2026-04-11 20:59 52.55279 11.96998 9974 ft 133 kts 271°
2026-04-11 21:00 52.55270 11.95484 9974 ft 133 kts 271°
2026-04-11 21:00 52.55263 11.93968 9974 ft 133 kts 271°
2026-04-11 21:00 52.55259 11.92964 9977 ft 133 kts 271°
2026-04-11 21:00 52.55255 11.91447 9974 ft 133 kts 271°
2026-04-11 21:01 52.55251 11.89929 9973 ft 133 kts 271°
2026-04-11 21:01 52.55248 11.88413 9969 ft 133 kts 271°
2026-04-11 21:01 52.55246 11.86898 9974 ft 133 kts 271°
2026-04-11 21:01 52.55245 11.85380 9968 ft 133 kts 271°
2026-04-11 21:02 52.55245 11.83868 9970 ft 132 kts 271°
2026-04-11 21:02 52.55247 11.82354 9971 ft 132 kts 271°
2026-04-11 21:02 52.55249 11.80841 9973 ft 132 kts 271°
2026-04-11 21:02 52.55249 11.79329 9970 ft 131 kts 271°
2026-04-11 21:03 52.55223 11.77833 9971 ft 131 kts 269°
2026-04-11 21:03 52.55195 11.76328 9968 ft 132 kts 269°
2026-04-11 21:03 52.55168 11.74814 9969 ft 133 kts 269°
2026-04-11 21:03 52.55142 11.73299 9968 ft 133 kts 270°
2026-04-11 21:04 52.55116 11.71784 9966 ft 133 kts 270°
2026-04-11 21:04 52.55092 11.70270 9967 ft 133 kts 270°
2026-04-11 21:04 52.55068 11.68757 9966 ft 133 kts 270°
2026-04-11 21:04 52.55046 11.67244 9964 ft 132 kts 270°
2026-04-11 21:05 52.55025 11.65731 9962 ft 132 kts 270°
2026-04-11 21:05 52.55007 11.64239 9962 ft 132 kts 270°
2026-04-11 21:05 52.54988 11.62704 9966 ft 133 kts 270°
2026-04-11 21:05 52.54959 11.61218 9963 ft 130 kts 268°
2026-04-11 21:06 52.54888 11.59737 9964 ft 130 kts 266°
2026-04-11 21:06 52.54803 11.58247 9961 ft 131 kts 265°
2026-04-11 21:06 52.54703 11.56755 9962 ft 132 kts 265°
2026-04-11 21:06 52.54589 11.55264 9961 ft 131 kts 264°
2026-04-11 21:07 52.54462 11.53776 9963 ft 131 kts 263°
2026-04-11 21:07 52.54320 11.52294 9963 ft 131 kts 262°
2026-04-11 21:07 52.54164 11.50814 9964 ft 131 kts 261°
2026-04-11 21:07 52.53996 11.49341 9963 ft 131 kts 260°
2026-04-11 21:08 52.53814 11.47872 9958 ft 131 kts 259°
2026-04-11 21:08 52.53618 11.46407 9960 ft 131 kts 259°
2026-04-11 21:08 52.53417 11.44940 9961 ft 132 kts 259°
2026-04-11 21:08 52.53218 11.43466 9956 ft 132 kts 259°
2026-04-11 21:09 52.53022 11.41985 9955 ft 133 kts 259°
2026-04-11 21:09 52.52830 11.40503 9951 ft 132 kts 259°
2026-04-11 21:09 52.52689 11.39027 9958 ft 131 kts 263°
2026-04-11 21:09 52.52567 11.37542 9958 ft 132 kts 263°
2026-04-11 21:10 52.52447 11.36047 9952 ft 132 kts 263°
2026-04-11 21:10 52.52328 11.34550 9952 ft 132 kts 263°
2026-04-11 21:10 52.52199 11.33057 9953 ft 132 kts 262°
2026-04-11 21:10 52.52057 11.31571 9950 ft 131 kts 261°
2026-04-11 21:11 52.51906 11.30089 9956 ft 132 kts 261°
2026-04-11 21:11 52.51758 11.28623 9950 ft 132 kts 261°
2026-04-11 21:11 52.51612 11.27133 9952 ft 132 kts 261°
2026-04-11 21:11 52.51465 11.25620 9946 ft 133 kts 261°
2026-04-11 21:12 52.51324 11.24146 9946 ft 132 kts 261°
2026-04-11 21:12 52.51203 11.22661 9946 ft 130 kts 263°
2026-04-11 21:12 52.51110 11.21182 9950 ft 131 kts 264°
2026-04-11 21:12 52.51019 11.19690 9947 ft 132 kts 264°
2026-04-11 21:13 52.50932 11.18188 9943 ft 132 kts 264°
2026-04-11 21:13 52.50845 11.16686 9945 ft 132 kts 264°
2026-04-11 21:13 52.50761 11.15178 9945 ft 133 kts 264°
2026-04-11 21:13 52.50680 11.13673 9944 ft 132 kts 264°
2026-04-11 21:14 52.50601 11.12166 9943 ft 132 kts 264°
2026-04-11 21:14 52.50524 11.10660 9946 ft 132 kts 264°
2026-04-11 21:14 52.50449 11.09154 9944 ft 132 kts 264°
2026-04-11 21:14 52.50376 11.07647 9941 ft 132 kts 264°
2026-04-11 21:15 52.50305 11.06136 9939 ft 133 kts 264°
2026-04-11 21:15 52.50237 11.04628 9938 ft 132 kts 264°
2026-04-11 21:15 52.50171 11.03122 9937 ft 132 kts 264°
2026-04-11 21:15 52.50108 11.01613 9938 ft 132 kts 264°
2026-04-11 21:16 52.50049 11.00105 9937 ft 132 kts 264°
2026-04-11 21:16 52.49991 10.98593 9937 ft 133 kts 264°
2026-04-11 21:16 52.49936 10.97082 9935 ft 133 kts 264°
2026-04-11 21:16 52.49883 10.95568 9937 ft 133 kts 264°
2026-04-11 21:17 52.49831 10.94017 9783 ft 143 kts 264°
2026-04-11 21:17 52.49773 10.92321 9473 ft 154 kts 264°
2026-04-11 21:17 52.49713 10.90528 9129 ft 160 kts 264°
2026-04-11 21:17 52.49655 10.88682 8775 ft 163 kts 265°
2026-04-11 21:18 52.49622 10.86817 8425 ft 164 kts 266°
2026-04-11 21:18 52.49591 10.84940 8095 ft 166 kts 265°
2026-04-11 21:18 52.49547 10.83046 7772 ft 166 kts 265°
2026-04-11 21:18 52.49494 10.81149 7461 ft 166 kts 264°
2026-04-11 21:19 52.49439 10.79253 7122 ft 166 kts 264°
2026-04-11 21:19 52.49372 10.77357 6771 ft 166 kts 263°
2026-04-11 21:19 52.49291 10.75463 6438 ft 166 kts 263°
2026-04-11 21:19 52.49197 10.73572 6078 ft 166 kts 262°
2026-04-11 21:20 52.49092 10.71676 5712 ft 167 kts 261°
2026-04-11 21:20 52.48974 10.69786 5363 ft 167 kts 260°
2026-04-11 21:20 52.48849 10.67891 5028 ft 167 kts 259°
2026-04-11 21:20 52.48725 10.65998 4709 ft 167 kts 259°
2026-04-11 21:21 52.48612 10.64165 4284 ft 156 kts 259°
2026-04-11 21:21 52.48515 10.62400 3814 ft 156 kts 259°
2026-04-11 21:21 52.48449 10.60776 3407 ft 130 kts 258°
2026-04-11 21:21 52.48494 10.59384 3013 ft 121 kts 270°
2026-04-11 21:22 52.48706 10.58011 2628 ft 127 kts 272°
2026-04-11 21:22 52.48937 10.56572 2223 ft 133 kts 272°
2026-04-11 21:22 52.49178 10.55097 1855 ft 133 kts 272°
2026-04-11 21:22 52.49420 10.53712 1468 ft 120 kts 274°
2026-04-11 21:23 52.49552 10.52401 1012 ft 110 kts 256°
2026-04-11 21:23 52.49373 10.51313 673 ft 88 kts 238°
2026-04-11 21:23 52.49408 10.50701 541 ft 47 kts 351°
2026-04-11 21:23 52.49720 10.50938 489 ft 61 kts 76°
2026-04-11 21:24 52.49510 10.51405 378 ft 72 kts 222°
2026-04-11 21:24 52.49442 10.51038 274 ft 27 kts 347°
2026-04-11 21:24 52.49502 10.51020 219 ft 0 kts
2026-04-11 21:24 52.49500 10.51020 216 ft 0 kts 12°